Regional Weather Roundup
Issued by NWS Wakefield, VA

Home | Current Version | Previous Version | Text Only | Print | Product List | Glossary Off
Versions: 1 2 3 4 5 6 7 8 9 10 11 12 13 14 15 16 17 18 19 20 21 22 23 24 25 26 27 28 29 30 31 32 33 34 35 36 37 38 39 40
000 ASUS41 KAKQ 290715 RWRAKQ REGIONAL WEATHER ROUNDUP NATIONAL WEATHER SERVICE WAKEFIELD VA 200 AM EST SAT FEB 29 2020 Note: "fair" indicates few or no clouds below 12,000 feet with no significant weather and/or obstructions to visibility. * = Denotes station may not report precipitation (e.g., rain,snow,etc.), thunder or fog. VAZ042-051-052>054-056-290800- NORTHERN VIRGINIA CITY SKY/WX TMP DP RH WIND PRES REMARKS WASH NATIONAL FAIR 34 17 50 NW10 29.94F DULLES FAIR 29 15 56 W5 29.92F FORT BELVOIR FAIR 33 15 48 NW6 29.93F QUANTICO FAIR 32 20 61 NW6 29.95F FREDERICKSBRG* FAIR 29 27 90 CALM 29.93F STAFFORD* FAIR 28 22 81 CALM 29.97F WARRENTON FAIR 26 19 76 CALM 29.92S CULPEPER* FAIR 33 20 58 CALM 29.94S MANASSAS* FAIR 29 18 63 NW3 29.93F LEESBURG* MOCLDY 32 19 59 NW7 29.94S WINCHESTER CLOUDY 30 16 55 NW10 29.89F WCI 21 FRONT ROYAL* CLOUDY 32 18 55 W10 29.89F WCI 24 LURAY* FAIR 32 19 59 SW7 29.90S $$ VAZ048-049-060>072-079>083-290800- CENTRAL AND SOUTH CENTRAL VIRGINIA CITY SKY/WX TMP DP RH WIND PRES REMARKS RICHMOND FAIR 36 25 64 W6 29.94F CHESTERFIELD* FAIR 33 25 72 SW3 29.94F PETERSBURG* FAIR 29 23 81 SW3 29.96F HANOVER FAIR 29 24 82 CALM 29.94F TAPPAHANNOCK* FAIR 29 28 97 CALM 29.94F QUINTON* FAIR 32 27 83 CALM 29.94S CHARLOTTSVILLE FAIR 32 22 66 CALM 29.91S GORDONSVILLE* PTSUNNY 28 23 83 CALM 29.92R ORANGE* FAIR 28 23 80 CALM 29.92S LOUISA* FAIR 26 22 84 SW5 29.96S BUMPASS* FAIR 28 20 74 CALM 29.92S FARMVILLE* FAIR 30 24 78 SW5 29.93F CREWE* FAIR 32 22 68 W3 29.95S FORT PICKETT* FAIR 32 25 74 SW6 29.95F CHASE CITY* FAIR 29 25 85 CALM 29.97S CLARKSVILLE* FAIR 32 28 86 SW5 29.97S SOUTH HILL* FAIR 33 25 72 SW3 30.02S LAWRENCEVILLE* FAIR 32 28 83 CALM 29.96F EMPORIA* FAIR 35 29 79 W5 29.99S $$ VAZ088>098-290800- SOUTHEAST VIRGINIA CITY SKY/WX TMP DP RH WIND PRES REMARKS NORFOLK FAIR 43 31 62 W8 29.94S VIRGINIA BEACH FAIR 36 30 79 SW7 29.94S NORFOLK NAVAL FAIR 43 31 62 W14 29.96S WEST POINT* FAIR 35 30 82 CALM 29.96F SALUDA* FAIR 35 29 77 W3 29.94F NEWPORT NEWS FAIR 41 27 57 MISG 29.95S LANGLEY AFB FAIR 40 30 67 W12 29.93S FORT EUSTIS FAIR 39 29 66 W7 29.93R WILLIAMSBURG* FAIR 39 30 70 CALM 29.96S HR EXEC AP* FAIR 34 31 88 W3 29.97S FRANKLIN* FAIR 37 28 70 W8 29.97F US460-WAKEFLD FAIR 36 28 73 CALM 29.96S $$ VAZ020-022-025-037-045-290800- WEST CENTRAL AND SOUTHWEST VIRGINIA CITY SKY/WX TMP DP RH WIND PRES REMARKS STAUNTON* CLOUDY 25 20 80 CALM 29.91F WAYNESBORO* PTSUNNY 30 24 77 W5 29.88S HOT SPRINGS VA SNOW 20 20 100 W12 29.77S VSB 1/2 WCI 8 LYNCHBURG FAIR 31 22 69 SW3 29.93S DANVILLE FAIR 31 26 82 S5 29.97F SOUTH BOSTON* FAIR 32 26 80 CALM 29.98S MARTINSVILLE MOCLDY 26 25 94 CALM 29.98F ROANOKE CLOUDY 34 27 75 W6 29.94S BLACKSBURG LGT SNOW 30 30 100 CALM 29.93R DUBLIN* CLOUDY 32 28 86 W12 29.91F WCI 23 MARION* LGT SNOW 32 29 87 W16G28 29.91S WCI 22 HILLSVILLE* LGT SNOW 29 28 96 W5 29.88S VSB 3/4 RICHLANDS* CLOUDY 27 26 94 NW8 29.93S WISE* FLURRIES 30 30 100 W8 29.96S ABINGDON* LGT SNOW 32 29 89 NW10G17 29.97R WCI 23 $$ MDZ021>025-VAZ099-100-290800- SOUTHERN MARYLAND AND THE DELMARVA PENINSULA CITY SKY/WX TMP DP RH WIND PRES REMARKS PATUXENT RIVER FAIR 37 20 50 NW16 29.93S BAY BRIDGE APT FAIR 34 18 51 NW14G28 29.93S WCI 24 LEONARDTOWN FAIR 32 19 59 CALM 29.94S DOVER FAIR 34 15 46 W12 29.89F GEORGETOWN FAIR 36 20 52 NW6 29.92R EASTON FAIR 35 19 52 W10G17 29.96S CAMBRIDGE CLEAR 36 19 51 NW10 29.93S SALISBURY FAIR 32 26 78 NW3 29.92S TANGIER NOT AVBL OCEAN CITY FAIR 34 26 72 NW6 29.92S WALLOPS ISLAND FAIR 37 25 61 N7 29.93R ACCOMACK* NOT AVBL $$ NCZ012>017-030>032-290800- NORTH CENTRAL AND EASTERN NORTH CAROLINA CITY SKY/WX TMP DP RH WIND PRES REMARKS ROANOKE RAPIDS FAIR 32 32 100 SW5 29.98F RALEIGH FAIR 35 28 75 W6 30.00F ELIZABETH CITY FAIR 38 32 79 SW7 29.97S AHOSKIE* FAIR 34 33 96 SW3 29.99S EDENTON* FAIR 44 37 78 W6 29.99S CURRITUCK* MOCLDY 40 35 80 W6 29.97R KILL DEVIL HLS MOCLDY 42 34 73 W3 29.95S MANTEO FAIR 42 34 72 W3 29.97F CAPE HATTERAS FAIR 48 35 60 W9G18 29.98R TARBORO* FAIR 38 31 74 W7 30.00S GOLDSBORO FAIR 40 33 74 W6 30.00S WASHINGTON FAIR 38 32 78 CALM 30.01S GREENVILLE FAIR 41 32 70 W3 30.02S NEW BERN FAIR 42 32 67 W7 30.02R WILMINGTON FAIR 45 30 55 W9 30.04S $$ VAZ048-290800- ELSEWHERE CITY SKY/WX TMP DP RH WIND PRES REMARKS HARRISBURG PA FAIR 29 13 51 NW8 29.89S BALTIMORE FAIR 33 12 41 W12 29.91F WCI 24 ANNAPOLIS FAIR 35 17 47 W9 29.92F ANDREWS AFB FAIR 33 15 48 NW9 29.91F PHILADELPHIA MOCLDY 31 13 47 NW5 29.90S HENDERSON NC FAIR 31 25 78 SW3 29.98S GREENSBORO FAIR 31 23 72 SW7 29.97F ROCKY MOUNT FAIR 36 29 75 SW3 30.00F $$ VAZ100-290800- MARINE STATION/POSITION TIME TEMP WIND PRES WAVE SWELL AIR SEA DIR/SP/G HT/PER HT/PER (UTC) (F) (DEG/KT/KT) (MB) (FT/S) (FT/S) CAPE MAY NJ 0630 38 42 300/ 12/ 19 1012.0S LEWES DE 0630 37 43 290/ 10/ 14 1013.2R 15NM E FENWICK I 0650 40 47 300/ 21/ 27 1009.2R 4/ 4 2/10 OCEAN-CITY-INLET 0630 36 44 310/ 6/ 7 1014.0R WACHAPREAGUE VA 0630 41 46 280/ 4/ 8 1013.2R THOMAS POINT MD 0700 35 42 290/ 13/ 14 1014.3S GOOSES REEF MD 0636 38 310/ 16/ 17 1013.9R SOLOMONS ISLAND 0630 38 44 330/ 6/ 8 1013.3R BISHOPS HEAD MD 0630 35 42 350/ 5/ 7 1013.4S PINEY POINT MD 0630 330/ 10/ 13 N/A POTOMAC MD 0654 39 44 320/ 8/ 14 1013.6F CAMBRIDGE MD 0630 38 43 310/ 14/ 21 1013.2R LEWISETTA VA 0630 38 44 300/ 3/ 4 1013.6F RAPPAHANNOCK LGT 0630 270/ 20/ 24 1014.4R STINGRAY PT 0636 45 300/ 14/ 16 1017.2R YORK RVR RNG VA 0630 43 290/ 15/ 17 1014.2F YORKTOWN VA 0630 42 46 270/ 10/ 14 1013.5R DOMINION TERM VA 0630 42 280/ 14/ 17 1014.2S KIPTOPEKE VA 0630 45 290/ 17/ 21 N/A CAPE HENRY VA 0630 42 230/ 6/ 8 1014.0S WILLOUBY STN VA 0630 43 260/ 15/ 17 1013.3R S CRANEY ISL VA 0630 41 260/ 5/ 9 1014.0R CAPE HENRY BUOY 0630 45 N/A 2/ 4 1ST LANDING BUOY 0650 2 290/ 17/ 21 1013.6R DUCK PIER NC 0630 44 280/ 7/ 10 1013.9S 44100 DUCK FRF 0630 47 N/A 2/ 3 44056 DUCK FRF 0630 47 N/A 1/11 OREGON INLET NC 0624 44 49 310/ 10/ 15 1014.7S HATTERAS NC 0630 48 52 300/ 17/ 19 1014.8S DIAMOND SHLS NC 0650 53 70 290/ 23/ 29 1013.8R 7/ 6 CAPE LOOKOUT NC 0600 49 280/ 21/ 24 1016.1F $$

USA.gov is the U.S. government's official web portal to all federal, state and local government web resources and services.